Hourly Data Report for October 19, 2014

All times are specified in Local Standard Time (LST). Add 1 hour to adjust for Daylight Saving Time where and when it is observed.

POND INLET A
NUNAVUT

72°41'22.000" N
77°58'08.000" W
61.60 m
2403206
71095
YIO

Download Data

Hourly Data (October 2014)
Hourly Data Report for October 19, 2014
Temp Definition
°C
Dew Point Temp Definition
°C
Rel Hum Definition
%
Wind Dir Definition
10's deg

Wind Spd Definition
km/h
Visibility Definition
km
Stn Press Definition
kPa
Hmdx Definition


Wind Chill Definition


Weather Definition


TIME
00:00 Legend Double Dagger -8.6 -9.8 91 15 17 2.0 100.55   -15 Snow
01:00 Legend Double Dagger -8.4 -9.5 92 16 9 1.6 100.55   -13 Snow
02:00 Legend Double Dagger -8.0 -9.5 89 26 9 6.4 100.56   -13 Snow
03:00 Legend Double Dagger -7.5 -8.6 92 29 18 8.1 100.54   -14 Snow
04:00 Legend Double Dagger -7.8 -9.3 89 29 22 8.1 100.54   -15 Snow
05:00 Legend Double Dagger -8.0 -9.9 86 30 22 9.7 100.55   -16 Snow
06:00 Legend Double Dagger -8.0 -9.7 88 30 24 16.1 100.55   -16 Snow
07:00 Legend Double Dagger -8.1 -10.0 87 30 21 16.1 100.55   -16 Snow
08:00 Legend Double Dagger -8.2 -10.1 86 29 24 16.1 100.55   -16 Snow
09:00 Legend Double Dagger -8.2 -10.1 87 29 22 16.1 100.56   -16 Snow
10:00 Legend Double Dagger -8.2 -10.1 86 28 21 16.1 100.57   -16 Snow
11:00 Legend Double Dagger -8.1 -9.9 87 29 21 16.1 100.60   -16 Snow
12:00 Legend Double Dagger -8.1 -10.0 86 29 22 16.1 100.62   -16 Snow
13:00 Legend Double Dagger -8.2 -9.9 88 29 22 16.1 100.64   -16 Snow
14:00 Legend Double Dagger -8.2 -10.1 86 29 18 16.1 100.63   -15 Snow
15:00 Legend Double Dagger -9.4 -11.2 87 14 13 1.6 100.67   -15 Snow
16:00 Legend Double Dagger -9.6 -11.2 88 14 13 8.1 100.68   -16 Snow
17:00 Legend Double Dagger -9.8 -11.4 88 15 13 6.4 100.69   -16 Snow
18:00 Legend Double Dagger -10.1 -12.0 86 14 13 16.1 100.67   -16 Snow
19:00 Legend Double Dagger -11.0 -12.7 88 11 8 16.1 100.64   -16 LegendNANA
20:00 Legend Double Dagger -9.1 -10.7 89 7 8 16.1 100.60   -13 Snow
21:00 Legend Double Dagger -8.5 -10.0 89 5 5 16.1 100.57   -11 Snow
22:00 Legend Double Dagger -8.2 -10.0 87 LegendMM 4 16.1 100.55   -10 LegendNANA
23:00 Legend Double Dagger -9.1 -11.9 80 16 9 16.1 100.51   -14 LegendNANA

Notes on Data Quality.

Legend

  • E = Estimated
  • M = Missing
  • NA = Not Available
  • ‡ = Partner data that is not subject to review by the National Climate Archives
Date modified: